Location: Clyde
(45.1830°S, 169.3170°E)
Time: 00:35:39
(UTC+12:00)

BREEZE-M DEB (TANK) - Pass Details

Date: 24 January 2019
Orbit: 317 x 13827 km, 49.6° (Epoch: 22 April)

Event Time Altitude Azimuth Distance (km) Brightness Sun altitude
Rises 23:27:05 0° 285° (WNW) 6,071 8.4 -17.4°
Reaches altitude 10° 23:32:43 10° 282° (WNW) 3,591 7.2 -18.0°
Maximum altitude 23:39:34 61° 201° (SSW) 684 3.5 -18.6°
Drops below altitude 10° 23:42:20 10° 118° (ESE) 1,472 4.9 -18.9°
Enters shadow 23:42:22 10° 118° (ESE) 1,487 5.0 -18.9°
